Location: Unspecified
(0.0000°N, 0.0000°E)
Time: 02:18:28
(UTC+00:00)

Transit 4A - Pass Details

Date: 18 December 2018
Orbit: 868 x 977 km, 66.8° (Epoch: 17 January)

Event Time Altitude Azimuth Distance (km) Brightness Sun altitude
Rises 13:32:58 0° 328° (NNW) 3,614 10.9 56.9°
Reaches altitude 10° 13:35:34 10° 322° (NW) 2,683 10.4 56.5°
Maximum altitude 13:41:33 46° 250° (WSW) 1,271 10.5 55.4°
Drops below altitude 10° 13:47:38 10° 178° (S) 2,724 10.8 54.3°
Sets 13:50:19 0° 172° (S) 3,673 11.3 53.8°
